TimeEDT,TemperatureF,Dew PointF,Humidity,Sea Level PressureIn,VisibilityMPH,Wind Direction,Wind SpeedMPH,Gust SpeedMPH,PrecipitationIn,Events,Conditions,WindDirDegrees,DateUTC
12:53 AM,39.0,30.0,70,30.43,10.0,SE,11.5,-,N/A,,Clear,140,2013-04-22 04:53:00
1:53 AM,37.0,28.0,70,30.42,10.0,SE,6.9,-,N/A,,Clear,140,2013-04-22 05:53:00
2:53 AM,37.0,28.0,70,30.40,10.0,SSE,5.8,-,N/A,,Clear,150,2013-04-22 06:53:00
3:53 AM,36.0,28.0,73,30.38,10.0,SSE,4.6,-,N/A,,Clear,150,2013-04-22 07:53:00
4:53 AM,35.1,28.0,76,30.38,10.0,SSE,4.6,-,N/A,,Clear,160,2013-04-22 08:53:00
5:53 AM,35.1,28.0,76,30.37,10.0,SSE,3.5,-,N/A,,Clear,150,2013-04-22 09:53:00
6:53 AM,34.0,28.0,79,30.37,10.0,Calm,Calm,-,N/A,,Clear,0,2013-04-22 10:53:00
7:53 AM,36.0,28.9,76,30.38,10.0,Calm,Calm,-,N/A,,Clear,0,2013-04-22 11:53:00
8:53 AM,42.1,30.0,62,30.38,10.0,SSE,5.8,-,N/A,,Clear,160,2013-04-22 12:53:00
9:53 AM,46.9,28.9,50,30.36,10.0,South,8.1,-,N/A,,Clear,170,2013-04-22 13:53:00
10:53 AM,52.0,30.0,43,30.34,10.0,SSE,5.8,-,N/A,,Clear,150,2013-04-22 14:53:00
11:53 AM,55.9,30.0,37,30.34,10.0,Variable,6.9,-,N/A,,Clear,0,2013-04-22 15:53:00
12:53 PM,59.0,28.0,31,30.32,-9999.0,East,5.8,-,N/A,,Clear,100,2013-04-22 16:53:00
1:53 PM,60.1,27.0,28,30.29,10.0,SSE,10.4,16.1,N/A,,Clear,160,2013-04-22 17:53:00
2:53 PM,61.0,26.1,26,30.27,10.0,South,9.2,16.1,N/A,,Clear,170,2013-04-22 18:53:00
3:53 PM,63.0,27.0,26,30.25,10.0,SSE,6.9,-,N/A,,Clear,150,2013-04-22 19:53:00
4:53 PM,63.0,28.0,27,30.22,10.0,SSE,10.4,-,N/A,,Clear,160,2013-04-22 20:53:00
5:53 PM,63.0,26.1,25,30.18,10.0,SE,10.4,16.1,N/A,,Clear,130,2013-04-22 21:53:00
6:53 PM,62.1,27.0,26,30.17,10.0,SSE,8.1,-,N/A,,Clear,150,2013-04-22 22:53:00
7:53 PM,61.0,28.0,29,30.16,10.0,SE,6.9,-,N/A,,Clear,140,2013-04-22 23:53:00
8:53 PM,57.0,28.9,34,30.16,10.0,SE,5.8,-,N/A,,Clear,140,2013-04-23 00:53:00
9:53 PM,53.1,30.0,41,30.16,10.0,ESE,4.6,-,N/A,,Clear,120,2013-04-23 01:53:00
10:53 PM,54.0,32.0,43,30.16,10.0,SE,9.2,-,N/A,,Clear,130,2013-04-23 02:53:00
11:53 PM,51.1,33.1,50,30.15,10.0,SE,8.1,-,N/A,,Clear,130,2013-04-23 03:53:00